Voltar ao catálogo

STARLINK-2701

AtivoComunicaçõesVLEO
NORAD 48656·PAYLOAD·🇺🇸 United States

Lançado May 26, 2021 de Cape Canaveral Space Force Station

Loading…

Próximas Passagens (próximas 24 horas)

TLE

AtualizadoSource: CelesTrak SupGP

Época: Sep 14, 2026, 20:58 UTC

1 48656C 21044U   26257.87409722 -.00016187  00000+0 -52051-3 0  2578
2 48656  53.1585 313.4189 0001309  80.6333 311.4815 15.31711042    12

Acompanhe STARLINK-2701 em tempo real com AllMySat

Download on the App Store